Regional Weather Roundup
Issued by NWS

Home | Current Version | Previous Version | Text Only | Print | Product List | Glossary On
Versions: 1 2 3 4 5 6 7 8 9 10 11 12 13 14 15 16 17 18 19 20 21 22 23 24 25 26 27 28 29 30 31 32 33 34 35 36 37 38 39 40 41 42 43 44 45 46 47 48 49 50
000
ASUS43 KMPX 011001
RWRMN
WEATHER ROUNDUP FOR MINNESOTA
NATIONAL WEATHER SERVICE TWIN CITIES/CHANHASSEN MN
500 AM CDT SAT OCT 01 2016


NOTE: "FAIR" INDICATES FEW OR NO CLOUDS BELOW 12,000 FEET WITH NO
SIGNIFICANT WEATHER AND/OR OBSTRUCTIONS TO VISIBILITY. N/A MEANS
CURRENT SKY AND/OR WEATHER CONDITIONS ARE NOT AVAILABLE.

MNZ060>063-068>070-011100-
   Twin Cities Metro

CITY           SKY/WX    TMP DP  RH WIND       PRES   REMARKS
TWIN CITIES    CLEAR     54  51  90 N7        30.17F
ST PAUL        CLEAR     54  51  90 NW3       30.18F
CRYSTAL        CLEAR     51  48  89 N3        30.17F
BLAINE         MOCLDY    52  52 100 N5        30.18F FOG
LAKEVILLE      CLEAR     52  52 100 CALM      30.17S
EDEN PRAIRIE   CLEAR     54  51  90 N6        30.16F
LAKEVILLE      CLEAR     52  52 100 CALM      30.17S
SOUTH ST PAUL  CLEAR     55  52  88 NE3       30.17S
LAKE ELMO      FAIR      50  50 100 NW3       30.19S
$$
MNZ001>005-007-008-013>017-022>024-027-028-011100-
   Northwest Minnesota

CITY           SKY/WX    TMP DP  RH WIND       PRES   REMARKS
BEMIDJI        FOG       48  48 100 SE7       30.22F VSB 3/4
HALLOCK        CLOUDY    55  50  82 SE7       30.17R
ROSEAU         MOCLDY    52  46  82 CALM      30.21S
WARROAD        PTCLDY    50  46  87 SE5       30.21F
THIEF RVR FALL MOCLDY    48  46  93 E8        30.19F
CROOKSTON      MOCLDY    52  48  87 SE8       30.17F
FOSSTON        CLOUDY    46  43  87 SE5       30.20S
DETROIT LAKES  PTCLDY    50  46  87 SE7       30.21S
MOORHEAD       PTCLDY    52  48  87 SE6       30.17F
PARK RAPIDS    FOG       50  48  93 SE5       30.22S VSB 1/2
MAHNOMEN       FAIR      48  47  93 SE7       30.19S
$$
MNZ006-009>011-018-025>026-011100-
   North Central Minnesota

CITY           SKY/WX    TMP DP  RH WIND       PRES   REMARKS
BAUDETTE       PTCLDY    47  45  93 SE8       30.24S
FLAG ISLAND    PTCLDY    55  48  76 SE8       30.22S
INTL FALLS     CLOUDY    39  38  96 CALM      30.25S
WASKISH        CLOUDY    43  43 100 E3        30.23S
BIG FORK       CLOUDY    37  36  93 CALM      30.25S FOG
GRAND RAPIDS   CLOUDY    48  48 100 CALM      30.26S FOG
ORR            CLEAR     36  34  93 CALM      30.23F
COOK           CLEAR     39  37  93 CALM      30.26S
WALKER         CLOUDY    49  49  97 SE3       30.23S
$$
MNZ012-019>021-037-011100-
   Northeast Minnesota

CITY           SKY/WX    TMP DP  RH WIND       PRES   REMARKS
DULUTH         FOG       52  52 100 E8        30.23F VSB 1/2
ELY            PTCLDY    41  39  93 CALM      30.25F
HIBBING        FOG       37  37 100 NW3       30.25S VSB 1
EVELETH        CLEAR     42  42  97 CALM      30.25F
DULUTH HARBOR  CLOUDY    54  52  94 E5        30.25F
TWO HARBORS    CLEAR     48  45  87 CALM      30.22F
SILVER BAY     CLEAR     46  45  93 CALM      30.23F
GRAND MARAIS     N/A     56  49  77 N5        30.24S
G MARAIS ARPRT CLEAR     46  41  81 N6        30.27F
$$
MNZ029>031-032-039>041-046>048-054>057-064-011100-
   West Central Minnesota

CITY           SKY/WX    TMP DP  RH WIND       PRES   REMARKS
FERGUS FALLS   PTCLDY    52  52 100 E5        30.20S
MORRIS         PTCLDY    48  48 100 E7        30.18R
ALEXANDRIA     FOG       50  50 100 E8        30.21S VSB 1/4
ELBOW LAKE     FAIR      50  50  99 SE9       30.19S
WADENA         FOG       48  48 100 E7        30.21S VSB 1/2
GLENWOOD       FOG       50  48  93 E8        30.20S VSB 1/4
BENSON         CLEAR     50  46  87 CALM      30.18S
ORTONVILLE     PTCLDY    48  45  87 CALM      30.17S
MADISON        PTCLDY    48  46  93 E3        30.17S
WILLMAR        FAIR      54  52  94 E5        30.19F
$$
MNZ033>034-036-042>043-049>051-058-059-011100-
   Central Minnesota

CITY           SKY/WX    TMP DP  RH WIND       PRES   REMARKS
ST CLOUD       CLOUDY    53  53 100 NE3       30.20S
SAUK CENTRE    CLOUDY    51  51 100 E6        30.21S FOG
PAYNESVILLE    CLOUDY    52  52 100 NE6       30.20F FOG
AITKIN         CLOUDY    52  46  82 NE3       30.22S FOG
PINE RIVER     CLOUDY    52  52 100 SE5       30.26S
BRAINERD       CLOUDY    51  50  96 NE6       30.23S
STAPLES        CLOUDY    50  50 100 CALM      30.22S FOG
LONG PRAIRIE   SNOW      50  50 100 NE5       30.21F VSB 1/2
LITTLE FALLS   CLOUDY    52  50  93 CALM      30.22S
LITCHFIELD     DRZL/FOG  52  52 100 NE5       30.20R VSB 1/4
BUFFALO        MOCLDY    51  49  93 CALM      30.20S
MAPLE LAKE     CLOUDY    53  53  99 NE3       30.20S
HUTCHINSON     CLOUDY    54  53  97 NE6       30.19S
$$
MNZ037-044-045-052-053-011100-
   East Central Minnesota

CITY           SKY/WX    TMP DP  RH WIND       PRES   REMARKS
PRINCETON        N/A     54  52  94 N5        30.20F
MORA           CLOUDY    50  50 100 CALM      30.23S
CAMBRIDGE      CLEAR     54  50  87 CALM      30.18F
MOOSE LAKE     CLOUDY    50  48  93 NE3       30.21S FOG
HINCKLEY       CLOUDY    50  50 100 N3        30.21F
CLOQUET        FOG       52  48  87 E8        30.23F VSB 1/2
MCGREGOR       CLOUDY    50  48  93 CALM      30.24S
$$
MNZ071>073-080-081-089-090-097-098-011100-
   Southwest Minnesota

CITY           SKY/WX    TMP DP  RH WIND       PRES   REMARKS
MONTEVIDEO     CLEAR     46  45  93 CALM      30.19S
GRANITE FALLS  CLEAR     48  47  95 CALM      30.19S
CANBY          PTCLDY    46  45  96 CALM      30.19R
MARSHALL       PTCLDY    45  44  97 CALM      30.18S
REDWOOD FALLS  CLOUDY    53  50  89 N3        30.17F
OLIVIA         CLEAR     50  48  93 E3        30.17S
PIPESTONE      CLOUDY    54  48  82 SE3       30.17S
WINDOM         CLOUDY    57  52  82 CALM      30.17S
WORTHINGTON    CLOUDY    55  53  93 NW5       30.17F
JACKSON        MOCLDY    57  52  82 CALM      30.17F
TRACY          CLOUDY    55  52  89 CALM      30.17S
$$
MNZ065>067-074>077-082>085-091>093-011100-
   South Central Minnesota

CITY           SKY/WX    TMP DP  RH WIND       PRES   REMARKS
MANKATO        CLEAR     56  54  93 NE7       30.16F
NEW ULM        MOCLDY    54  52  94 CALM      30.17S
ST JAMES       CLOUDY    55  52  88 N3        30.17F
FAIRMONT       CLOUDY    57  54  89 N3        30.17R
GLENCOE        CLEAR     51  51 100 CALM      30.17S
FARIBAULT      CLOUDY    55  54  94 CALM      30.16F
OWATONNA       CLOUDY    59  54  82 CALM      30.16S
WASECA         CLOUDY    55  52  88 N3        30.17F
ALBERT LEA     CLOUDY    59  55  88 CALM      30.15S
$$
MNZ078>079-086>088-094>096-011100-
   Southeast Minnesota

CITY           SKY/WX    TMP DP  RH WIND       PRES   REMARKS
ROCHESTER      CLOUDY    59  56  89 N7        30.15S
RED WING       MOCLDY    57  54  88 CALM      30.15S
DODGE CENTER   CLOUDY    57  54  88 N3        30.15F
WINONA         CLOUDY    59  55  88 NW5       30.14S
AUSTIN         CLOUDY    59  54  82 NE5       30.14S
PRESTON        CLOUDY    56  55  95 N7        30.14F FOG
$$
ABBREVIATIONS USED IN REMARKS
   TC - TEMPERATURES IN CELSIUS
  WCI - WIND CHILL INDEX
   HX - HEAT INDEX
  VSB - VISIBILITY
$$



USA.gov is the U.S. government's official web portal to all federal, state and local government web resources and services.